Indiana, PA

10:48 PM EST on February 25, 2018 (GMT -0500)
Indiana County-Stewart

Weather History for KIDI - October, 2013

Change the Weather History Date:

Thursday, October 24, 2013

  Actual Average Record
Temperature  
Mean Temperature 36 °F -  
Max Temperature 42 °F 61 °F 83 °F (1963)
Min Temperature 30 °F 38 °F 3 °F (1998)
Degree Days  
Heating Degree Days 29    
Moisture  
Dew Point 32 °F    
Average Humidity 84    
Maximum Humidity 100    
Minimum Humidity 53    
Precipitation  
Precipitation 0.00 in - - ()
Sea Level Pressure  
Sea Level Pressure 30.00 in    
Wind  
Wind Speed 8 mph (West)    
Max Wind Speed 18 mph    
Max Gust Speed 26 mph    
Visibility 10 miles    
Events      
Averages and records for this station are not official NWS values.
T = Trace of Precipitation, MM = Missing Value Source: NWS Daily Summary

Daily Weather History Graph

Daily Weather History Graph

Search for Another Location

Airport or City:

Trip Planner

Search our weather history database for the weather conditions in past years. The results will help you decide how hot, cold, wet, or windy it might be!

Date:

Astronomy

Oct. 24, 2013 Rise Set
Actual Time 7:37 AM EDT 6:22 PM EDT
Civil Twilight 7:09 AM EDT 6:50 PM EDT
Nautical Twilight 6:37 AM EDT 7:22 PM EDT
Astronomical Twilight 6:06 AM EDT 7:54 PM EDT
Moon 10:45 PM EDT (10/24) 12:38 PM EDT (10/24)
Length of Visible Light 11h 41m
Length of Day
10h 45m
Waning Gibbous, 71% of the Moon is Illuminated
Oct 24
Waning Gibbous
Oct 26
Last Quarter
Nov 3
New
Nov 10
First Quarter
Nov 17
Full

Hourly Weather History & Observations

Time (EDT) Temp. Windchill Dew Point Humidity Pressure Visibility Wind Dir Wind Speed Gust Speed Precip Events Conditions
12:15 AM 35.6 °F 30.7 °F 35.6 °F 100% 29.90 in 10.0 mi WSW 5.8 mph - N/A   Unknown
12:35 AM 35.6 °F 30.7 °F 35.6 °F 100% 29.90 in 10.0 mi West 5.8 mph - N/A   Unknown
12:55 AM 35.6 °F 29.9 °F 35.6 °F 100% 29.90 in 10.0 mi West 6.9 mph - N/A   Unknown
1:15 AM 35.6 °F 28.6 °F 35.6 °F 100% 29.90 in 10.0 mi West 9.2 mph - N/A   Unknown
1:35 AM 35.6 °F 29.9 °F 35.6 °F 100% 29.90 in 10.0 mi West 6.9 mph - N/A   Unknown
1:55 AM 35.6 °F 29.2 °F 35.6 °F 100% 29.90 in 10.0 mi West 8.1 mph - N/A   Unknown
2:15 AM 35.6 °F 29.9 °F 35.6 °F 100% 29.90 in 10.0 mi West 6.9 mph - N/A   Unknown
2:35 AM 35.6 °F 29.2 °F 35.6 °F 100% 29.90 in 10.0 mi West 8.1 mph - N/A   Unknown
2:55 AM 35.6 °F 29.9 °F 35.6 °F 100% 29.91 in 10.0 mi West 6.9 mph - N/A   Unknown
3:15 AM 35.6 °F 28.6 °F 35.6 °F 100% 29.91 in 10.0 mi WSW 9.2 mph - N/A   Unknown
3:35 AM 35.6 °F 29.2 °F 35.6 °F 100% 29.91 in 10.0 mi West 8.1 mph - N/A   Unknown
3:55 AM 35.6 °F 29.2 °F 35.6 °F 100% 29.91 in 10.0 mi West 8.1 mph - N/A   Unknown
4:15 AM 35.6 °F 29.2 °F 35.6 °F 100% 29.92 in 10.0 mi West 8.1 mph - N/A   Unknown
4:35 AM 35.6 °F 29.2 °F 35.6 °F 100% 29.92 in 10.0 mi West 8.1 mph - N/A   Unknown
4:55 AM 35.6 °F 28.6 °F 35.6 °F 100% 29.93 in 10.0 mi West 9.2 mph - N/A   Unknown
5:15 AM 35.6 °F 29.2 °F 35.6 °F 100% 29.93 in 10.0 mi West 8.1 mph - N/A   Unknown
5:35 AM 35.6 °F 29.2 °F 35.6 °F 100% 29.94 in 10.0 mi West 8.1 mph - N/A   Unknown
5:55 AM 35.6 °F 29.2 °F 35.6 °F 100% 29.94 in 10.0 mi West 8.1 mph - N/A   Unknown
6:15 AM 35.6 °F 29.2 °F 35.6 °F 100% 29.95 in 10.0 mi West 8.1 mph - N/A   Unknown
6:35 AM 35.6 °F 29.2 °F 35.6 °F 100% 29.95 in 10.0 mi West 8.1 mph - N/A   Unknown
6:55 AM 35.6 °F 29.2 °F 33.8 °F 93% 29.96 in 10.0 mi West 8.1 mph - N/A   Unknown
7:15 AM 35.6 °F 27.1 °F 33.8 °F 93% 29.97 in 10.0 mi West 12.7 mph - N/A   Unknown
7:35 AM 35.6 °F 28.0 °F 32.0 °F 87% 29.97 in 10.0 mi West 10.4 mph - N/A   Unknown
7:55 AM 35.6 °F 28.6 °F 32.0 °F 87% 29.97 in 10.0 mi West 9.2 mph 17.3 mph N/A   Unknown
8:15 AM 35.6 °F 28.6 °F 32.0 °F 87% 29.98 in 10.0 mi West 9.2 mph - N/A   Unknown
8:35 AM 35.6 °F 29.2 °F 32.0 °F 87% 29.98 in 10.0 mi West 8.1 mph - N/A   Unknown
8:55 AM 35.6 °F 28.0 °F 32.0 °F 87% 29.99 in 10.0 mi West 10.4 mph - N/A   Unknown
9:15 AM 35.6 °F 27.5 °F 32.0 °F 87% 29.99 in 10.0 mi West 11.5 mph 17.3 mph N/A   Unknown
9:35 AM 35.6 °F 26.6 °F 32.0 °F 87% 29.99 in 10.0 mi West 13.8 mph 17.3 mph N/A   Unknown
9:55 AM 35.6 °F 26.2 °F 30.2 °F 81% 29.99 in 10.0 mi West 15.0 mph - N/A   Unknown
10:15 AM 37.4 °F 30.3 °F 32.0 °F 81% 30.00 in 10.0 mi West 10.4 mph 13.8 mph N/A   Unknown
10:35 AM 37.4 °F 28.9 °F 30.2 °F 75% 30.00 in - West 13.8 mph - N/A   Unknown
10:55 AM 37.4 °F 32.1 °F 30.2 °F 75% 30.01 in - WNW 6.9 mph - N/A   Unknown
11:15 AM 37.4 °F 30.3 °F 30.2 °F 75% 30.01 in - West 10.4 mph - N/A   Unknown
11:35 AM 37.4 °F 28.9 °F 30.2 °F 75% 30.01 in - West 13.8 mph 18.4 mph N/A   Unknown
11:55 AM 39.2 °F 32.0 °F 30.2 °F 70% 30.01 in - West 11.5 mph - N/A   Unknown
12:15 PM 39.2 °F 32.0 °F 28.4 °F 65% 30.01 in - WNW 11.5 mph - N/A   Unknown
12:35 PM 41.0 °F 32.2 °F 30.2 °F 65% 30.00 in - West 18.4 mph 21.9 mph N/A   Unknown
12:55 PM 39.2 °F 33.0 °F 28.4 °F 65% 30.00 in - West 9.2 mph - N/A   Unknown
1:15 PM 42.8 °F 35.1 °F 28.4 °F 57% 29.99 in - West 16.1 mph 26.5 mph N/A   Unknown
1:35 PM 41.0 °F 34.7 °F 28.4 °F 61% 29.99 in - West 10.4 mph 17.3 mph N/A   Unknown
1:55 PM 41.0 °F 33.5 °F 26.6 °F 57% 29.99 in - WNW 13.8 mph 17.3 mph N/A   Unknown
2:15 PM 39.2 °F 33.0 °F 28.4 °F 65% 29.99 in - West 9.2 mph - N/A   Unknown
2:35 PM 39.2 °F 34.2 °F 26.6 °F 61% 29.99 in - WNW 6.9 mph - N/A   Unknown
2:55 PM 42.8 °F 36.2 °F 26.6 °F 53% 29.99 in - West 12.7 mph - N/A   Unknown
3:15 PM 42.8 °F 37.0 °F 26.6 °F 53% 30.00 in - West 10.4 mph - N/A   Unknown
3:35 PM 39.2 °F 33.0 °F 28.4 °F 65% 30.01 in - West 9.2 mph 24.2 mph N/A   Unknown
3:55 PM 39.2 °F 33.6 °F 30.2 °F 70% 30.02 in - West 8.1 mph - N/A   Unknown
4:15 PM 39.2 °F 33.0 °F 28.4 °F 65% 30.02 in - West 9.2 mph - N/A   Unknown
4:35 PM 41.0 °F 37.1 °F 30.2 °F 65% 30.02 in - NW 5.8 mph - N/A   Unknown
4:55 PM 39.2 °F 35.0 °F 30.2 °F 70% 30.02 in - NNW 5.8 mph - N/A   Unknown
5:15 PM 39.2 °F - 32.0 °F 75% 30.03 in - Calm Calm - N/A   Unknown
5:35 PM 39.2 °F 33.6 °F 30.2 °F 70% 30.02 in - WNW 8.1 mph - N/A   Unknown
5:55 PM 39.2 °F 35.9 °F 30.2 °F 70% 30.03 in - West 4.6 mph - N/A   Unknown
6:15 PM 39.2 °F 32.0 °F 28.4 °F 65% 30.04 in - West 11.5 mph - N/A   Unknown
6:35 PM 37.4 °F 32.8 °F 32.0 °F 81% 30.05 in - NNW 5.8 mph - N/A   Unknown
6:55 PM 37.4 °F 33.8 °F 32.0 °F 81% 30.06 in 10.0 mi NW 4.6 mph - N/A   Unknown
7:15 PM 37.4 °F 33.8 °F 32.0 °F 81% 30.07 in 10.0 mi NW 4.6 mph - N/A   Unknown
7:35 PM 35.6 °F - 32.0 °F 87% 30.07 in 10.0 mi Calm Calm - N/A   Unknown
7:55 PM 33.8 °F - 32.0 °F 93% 30.08 in 10.0 mi Calm Calm - N/A   Unknown
8:15 PM 33.8 °F - 32.0 °F 93% 30.08 in 10.0 mi Calm Calm - N/A   Unknown
8:35 PM 33.8 °F - 32.0 °F 93% 30.09 in 10.0 mi Calm Calm - N/A   Unknown
8:55 PM 32.0 °F - 30.2 °F 93% 30.09 in 10.0 mi Calm Calm - N/A   Unknown
9:15 PM 32.0 °F - 30.2 °F 93% 30.09 in 10.0 mi Calm Calm - N/A   Unknown
9:35 PM 32.0 °F 28.7 °F 30.2 °F 93% 30.10 in 10.0 mi West 3.5 mph - N/A   Unknown
9:55 PM 33.8 °F 29.6 °F 30.2 °F 87% 30.10 in 10.0 mi West 4.6 mph - N/A   Unknown
10:15 PM 33.8 °F 30.8 °F 30.2 °F 87% 30.11 in 10.0 mi West 3.5 mph - N/A   Unknown
10:35 PM 33.8 °F 28.6 °F 30.2 °F 87% 30.11 in 10.0 mi West 5.8 mph - N/A   Unknown
10:55 PM 30.2 °F 26.7 °F 30.2 °F 100% 30.10 in 10.0 mi West 3.5 mph - N/A   Unknown
11:15 PM 32.0 °F 26.4 °F 30.2 °F 93% 30.11 in 10.0 mi West 5.8 mph - N/A   Unknown
11:35 PM 32.0 °F 25.6 °F 30.2 °F 93% 30.11 in - WSW 6.9 mph - N/A   Unknown
11:55 PM 32.0 °F 26.4 °F 32.0 °F 100% 30.12 in - West 5.8 mph - N/A   Unknown